Flag for United Kingdom Weather past 2 weeks in Market Harborough, England, United Kingdom

Now
37 °F

Chilly.


Feels Like: 27 °F
Forecast: 26 / 37 °F
Wind: 22 mph from Northwest

Location: Church Lawford

Current Time: Feb 1, 2015 at 4:41:24 AM

Latest Report: Feb 1, 2015 at 4:00 AM


Visibility: 19 mi

Pressure: 29.38 "Hg

Humidity: 71%

Dew point: 29 °F

Location of Market HarboroughLocation

Historic Weather in Market Harborough — Graph

°F

Market Harborough temperature yesterday

Maximum temperature yesterday: 40 °F (at 12:00 PM)
Minimum temperature yesterday: 32 °F (at 12:00 AM)
Average temperature yesterday: 36 °F

Past Weeks' High & Low Weather Summary

 TemperatureHumidityPressure
High49 °F (Jan 28, 9:00 AM)100% (Jan 18, 5:00 AM)30.47 "Hg (Jan 18, 5:00 AM)
Low24 °F (Jan 20, 6:00 AM)56% (Jan 28, 3:00 PM)28.76 "Hg (Jan 30, 3:00 AM)
Average36 °F88%29.82 "Hg
* Reported Jan 17 4:00 AM — Feb 1 3:00 AM, Market Harborough, Weather by CustomWeather, © 2014

Note: Actual official high and low records may vary slightly from our data, if they occured in-between our weather recording intervals... More about our weather records

Advertising

Market Harborough weather history for previous 24 hours

 ConditionsComfort  
Time TempWeatherWind HumidityBarometerVisibility
3:00 AM
Feb 1
37 °FChilly.21 mph72%29.38 "Hg17 mi
2:00 AM37 °FChilly.21 mph72%29.35 "Hg12 mi
1:00 AM36 °FChilly.18 mph73%29.35 "Hg16 mi
12:00 AM36 °FChilly.18 mph73%29.35 "Hg17 mi
11:00 PM
Jan 31
36 °FChilly.18 mph72%29.35 "Hg15 mi
10:00 PM35 °FChilly.15 mph75%29.35 "Hg16 mi
9:00 PM35 °FChilly.16 mph74%29.35 "Hg25 mi
8:00 PM36 °FChilly.18 mph71%29.32 "Hg28 mi
7:00 PM37 °FChilly.16 mph74%29.29 "Hg25 mi
6:00 PM38 °FChilly.13 mph75%29.26 "Hg31 mi
5:00 PM39 °FChilly.16 mph73%29.23 "Hg25 mi
4:00 PM39 °FChilly.18 mph70%29.21 "Hg28 mi
3:00 PM40 °FChilly.18 mph71%29.18 "Hg31 mi
2:00 PM40 °FChilly.18 mph75%29.15 "Hg28 mi
1:00 PM40 °FChilly.18 mph78%29.12 "Hg28 mi
12:00 PM40 °FQuite cool.18 mph81%29.09 "Hg19 mi
11:00 AM37 °FLight rain. Cloudy.18 mph93%29.06 "Hg13 mi
10:00 AM36 °FRain. Cloudy.12 mph98%29.03 "Hg5 mi
9:00 AM35 °FRain showers. Cloudy.14 mph98%29.00 "Hg4 mi
8:00 AM34 °FLight rain. Cloudy.9 mph100%28.97 "Hg6 mi
7:00 AM33 °FLight snow. Overcast.7 mph100%28.94 "Hg3 mi
6:00 AM34 °FLots of rain. Overcast.9 mph99%28.91 "Hg6 mi
5:00 AM33 °FRain showers. Overcast.10 mph99%28.91 "Hg11 mi
4:00 AM33 °FChilly.9 mph98%28.91 "Hg22 mi
Weather by CustomWeather, © 2014

See weather overviewHow to use our weather pages